Location: Madrid
(40.4167°N, 3.7036°W)
Time: 19:12:37
(UTC+00:00)

ISS - Pass Details

Date: 18 October 2025
Orbit: 414 x 421 km, 51.6° (Epoch: 07 November)

Event Time Altitude Azimuth Distance (km) Brightness Sun altitude
Exits shadow 05:05:17 39° 235° (SW) 639 -3.3 -16.7°
Maximum altitude 05:06:24 88° 319° (NW) 424 -3.9 -16.5°
Drops below altitude 10° 05:09:47 10° 53° (NE) 1,505 -0.1 -15.8°
Sets 05:11:54 0° 54° (NE) 2,374 1.0 -15.4°
